Date String (YYYY-MM-DD hh:mm:ss) UTC,Instrument flags,Ambient pressure (hPa),Sample flow (lpm),Bypass flow (lpm),Sample temperature (°C),Ambient temperature (°C),ASC tube jacket temperature (°C),LED temperature (°C),Box temperature (°C),Sample RH (%),Span deviation,Mass concentration (μg/m³),Mass concentration (μg/m³),Mass concentration (μg/m³)
DateTimeUTC,F1_M11,P_M11,Q1_M11,Q2_M11,T1_M11,T2_M11,T3_M11,T4_M11,T5_M11,U1_M11,ZSPAN_M11,X2_M11,X0_M11,X1_M11
2022-11-13 17:00:00,,0819.9,5.00,0.00,23.0,21.7,00.0,31.8,25.0,08.8,0002.5,0009.70,0017.96,0008.76
2022-11-13 17:01:00,,0820.0,5.01,0.00,23.0,21.7,00.0,31.8,24.9,09.2,0002.6,0009.71,0018.00,0008.80
2022-11-13 17:02:00,,0819.9,4.99,0.00,23.0,21.7,00.0,31.8,24.9,09.3,0002.2,0009.78,0017.77,0008.86
2022-11-13 17:03:00,,0820.0,4.99,0.00,23.0,21.7,00.0,31.8,24.9,09.5,0002.0,0009.81,0018.71,0008.88
2022-11-13 17:04:00,,0820.0,5.01,0.00,23.0,21.7,00.0,31.8,24.9,09.2,0002.2,0009.81,0019.57,0008.92
2022-11-13 17:05:00,,0819.9,5.00,0.00,23.0,21.7,00.0,31.8,25.0,09.1,0001.5,0009.84,0019.49,0008.96
2022-11-13 17:06:00,,0820.0,4.99,0.00,23.0,21.7,00.0,31.8,25.0,09.1,0001.0,0009.89,0019.26,0008.99
2022-11-13 17:07:00,,0819.9,4.99,0.00,23.0,21.7,00.0,31.8,25.0,09.0,0001.7,0009.93,0019.04,0009.02
2022-11-13 17:08:00,,0819.9,5.00,0.00,23.1,21.7,00.0,31.8,25.0,08.8,0001.2,0009.96,0018.80,0009.07
2022-11-13 17:09:00,,0819.9,5.00,0.00,23.1,21.7,00.0,31.8,25.0,08.7,0000.0,0009.94,0018.67,0009.08
2022-11-13 17:10:00,,0820.0,5.01,0.00,23.1,21.7,00.0,31.8,24.9,08.8,0000.1,0009.95,0018.75,0009.11
2022-11-13 17:11:00,,0819.9,4.98,0.00,23.0,21.7,00.0,31.8,24.9,08.7,-000.5,0010.06,0018.83,0009.19
2022-11-13 17:12:00,,0819.9,4.99,0.00,23.1,21.7,00.0,31.8,25.0,08.8,-000.8,0010.10,0018.33,0009.23
2022-11-13 17:13:00,,0819.9,5.00,0.00,23.0,21.7,00.0,31.8,24.9,09.2,-000.4,0010.15,0018.28,0009.28
2022-11-13 17:14:00,,0820.0,5.00,0.00,23.0,21.7,00.0,31.8,25.0,09.6,-000.3,0010.20,0016.78,0009.37
2022-11-13 17:15:00,,0820.0,4.99,0.00,23.0,21.7,00.0,31.8,25.0,09.8,0000.1,0010.32,0015.91,0009.46
2022-11-13 17:16:00,,0820.0,5.00,0.00,23.0,21.7,00.0,31.8,24.9,10.0,0000.8,0010.47,0016.24,0009.57
2022-11-13 17:17:00,,0820.0,5.00,0.00,23.0,21.7,00.0,31.8,24.9,10.2,0000.7,0010.54,0016.23,0009.66
2022-11-13 17:18:00,,0819.9,5.00,0.00,23.0,21.7,00.0,31.8,24.9,10.2,0000.4,0010.66,0016.99,0009.75
2022-11-13 17:19:00,,0819.9,4.99,0.00,23.0,21.7,00.0,31.8,24.9,10.2,0000.8,0010.73,0017.22,0009.81
2022-11-13 17:20:00,,0819.9,5.01,0.00,23.0,21.7,00.0,31.8,24.9,10.3,0001.2,0010.87,0018.24,0009.90
2022-11-13 17:21:00,,0819.9,5.01,0.00,23.0,21.7,00.0,31.8,24.9,10.4,0001.5,0010.94,0018.98,0009.96
2022-11-13 17:22:00,,0819.9,5.00,0.00,23.0,21.7,00.0,31.8,24.9,10.5,0002.1,0011.01,0018.90,0010.02
2022-11-13 17:23:00,,0819.9,5.00,0.00,23.0,21.7,00.0,31.8,24.9,10.5,0002.3,0011.15,0018.89,0010.09
2022-11-13 17:24:00,,0819.9,5.00,0.00,23.0,21.6,00.0,31.8,24.9,10.5,0002.2,0011.20,0018.97,0010.13
2022-11-13 17:25:00,,0819.9,5.00,0.00,23.0,21.6,00.0,31.8,24.9,10.7,0001.8,0011.26,0019.17,0010.14
2022-11-13 17:26:00,,0819.9,4.99,0.00,23.0,21.6,00.0,31.8,24.9,10.8,0001.0,0011.26,0019.92,0010.14
2022-11-13 17:27:00,,0819.9,4.99,0.00,23.0,21.6,00.0,31.8,24.9,10.7,0000.4,0011.25,0020.57,0010.14
2022-11-13 17:28:00,,0820.0,5.01,0.00,23.0,21.6,00.0,31.8,24.9,10.6,0000.7,0011.24,0021.10,0010.15
2022-11-13 17:29:00,,0820.0,5.01,0.00,23.0,21.6,00.0,31.8,24.9,10.6,0000.5,0011.16,0020.84,0010.14
2022-11-13 17:30:00,,0820.0,4.99,0.00,23.0,21.6,00.0,31.8,24.9,10.7,-000.1,0011.15,0021.33,0010.12
2022-11-13 17:31:00,,0820.1,5.00,0.00,23.0,21.6,00.0,31.8,24.9,10.8,-000.5,0011.13,0022.14,0010.07
2022-11-13 17:32:00,,0820.1,4.99,0.00,23.0,21.6,00.0,31.8,24.9,10.7,-000.7,0011.16,0021.88,0010.06
2022-11-13 17:33:00,,0820.1,5.00,0.00,23.0,21.6,00.0,31.8,24.9,10.7,-000.4,0011.18,0022.88,0010.05
2022-11-13 17:34:00,,0820.0,5.01,0.00,23.0,21.6,00.0,31.8,24.9,10.6,-000.3,0011.13,0023.24,0010.01
2022-11-13 17:35:00,,0819.9,5.01,0.00,23.0,21.6,00.0,31.8,24.9,10.6,-000.7,0011.13,0023.21,0009.97
2022-11-13 17:36:00,,0819.9,5.00,0.00,23.0,21.6,00.0,31.8,24.9,10.5,-000.8,0011.06,0023.78,0009.94
2022-11-13 17:37:00,,0819.9,5.00,0.00,23.0,21.6,00.0,31.8,24.9,10.7,-000.8,0011.03,0023.54,0009.93
2022-11-13 17:38:00,,0820.0,5.00,0.00,23.0,21.5,00.0,31.8,24.9,10.8,-000.9,0011.09,0023.40,0009.98
2022-11-13 17:39:00,,0820.0,5.01,0.00,22.9,21.5,00.0,31.8,24.8,10.8,-001.3,0011.22,0023.76,0010.05
2022-11-13 17:40:00,,0820.0,4.99,0.00,22.9,21.5,00.0,31.8,24.8,10.8,-001.1,0011.39,0023.82,0010.13
2022-11-13 17:41:00,,0820.0,5.03,0.00,22.9,21.5,00.0,31.8,24.8,11.0,-000.7,0011.50,0024.06,0010.23
2022-11-13 17:42:00,,0820.0,4.97,0.00,22.9,21.5,00.0,31.8,24.8,11.2,-000.7,0011.59,0023.41,0010.33
2022-11-13 17:43:00,,0820.0,5.02,0.00,22.9,21.5,00.0,31.8,24.8,11.0,-000.6,0011.68,0023.02,0010.43
2022-11-13 17:44:00,,0819.9,4.98,0.00,22.9,21.5,00.0,31.8,24.9,11.1,-000.7,0011.76,0022.16,0010.52
2022-11-13 17:45:00,,0819.9,5.00,0.00,22.9,21.6,00.0,31.8,24.8,11.0,-000.8,0011.88,0021.93,0010.63
2022-11-13 17:46:00,,0819.9,5.02,0.00,22.9,21.6,00.0,31.8,24.8,11.0,-000.6,0011.99,0022.76,0010.77
2022-11-13 17:47:00,,0819.9,5.00,0.00,22.9,21.6,00.0,31.8,24.9,11.0,0000.1,0012.14,0022.86,0010.88
2022-11-13 17:48:00,,0819.9,4.98,0.00,22.9,21.6,00.0,31.7,24.9,11.1,0000.2,0012.20,0022.78,0010.93
2022-11-13 17:49:00,,0819.9,5.02,0.00,22.9,21.5,00.0,31.7,24.9,11.1,0000.5,0012.21,0023.03,0010.93
2022-11-13 17:50:00,,0820.0,5.00,0.00,22.9,21.5,00.0,31.8,24.8,11.2,0000.7,0012.21,0022.71,0010.92
2022-11-13 17:51:00,,0820.1,4.99,0.00,22.9,21.5,00.0,31.8,24.8,11.0,0000.8,0012.16,0023.16,0010.88
2022-11-13 17:52:00,,0820.2,4.98,0.00,22.9,21.5,00.0,31.7,24.8,11.0,0000.8,0012.09,0022.49,0010.84
2022-11-13 17:53:00,,0820.2,5.00,0.00,22.9,21.5,00.0,31.7,24.8,11.0,0001.3,0012.04,0021.88,0010.83
2022-11-13 17:54:00,,0820.2,5.02,0.00,22.9,21.5,00.0,31.7,24.8,10.9,0001.8,0012.00,0022.02,0010.80
2022-11-13 17:55:00,,0820.1,5.00,0.00,22.9,21.6,00.0,31.7,24.9,10.7,0002.0,0011.92,0022.61,0010.72
2022-11-13 17:56:00,,0820.0,4.99,0.00,22.9,21.6,00.0,31.7,24.9,10.6,0001.5,0011.76,0023.06,0010.61
2022-11-13 17:57:00,,0820.0,5.00,0.00,22.9,21.6,00.0,31.7,24.9,10.6,0000.9,0011.60,0023.05,0010.47
2022-11-13 17:58:00,,0820.0,5.00,0.00,22.9,21.6,00.0,31.7,24.9,10.7,-000.4,0011.42,0022.15,0010.30
2022-11-13 17:59:00,,0819.9,5.00,0.00,22.9,21.6,00.0,31.7,24.9,10.7,-000.7,0011.22,0021.85,0010.10
